Simultaneous Nadir Overpasses (SNOs) Predictions

Prediction of SNOs between METOP-A and TERRA Satellite Orbit:

Table of predicted SNOs for the next 14.0 days since TLE Epoch: 3/26/2016
Index Date (METOP-A) Time (METOP-A) Lat,Lon (METOP-A) SZA (METOP-A ) Date (TERRA) Time (TERRA) Lat,Lon (TERRA) SZA (TERRA ) Distance(km) Time Diff (sec)
1 03/26/2016 19:19:47 -81.31, 117.27 98.67 03/26/2016 19:20:58 -81.30, 117.19 98.65 1.42 71
2 03/26/2016 20:10:27 81.31, -75.26 81.34 03/26/2016 20:10:24 81.31, -75.08 81.35 2.95 3
3 03/29/2016 14:54:11 -81.31,-176.29 99.73 03/29/2016 14:55:13 -81.31,-176.21 99.69 1.51 62
4 03/29/2016 15:44:50 81.31, -8.46 80.32 03/29/2016 15:44:39 81.31, -8.51 80.31 0.92 11
5 04/01/2016 10:28:35 -81.31,-109.88 100.79 04/01/2016 10:29:28 -81.31,-109.75 100.75 2.18 53
6 04/01/2016 11:19:14 81.31, 57.93 79.26 04/01/2016 11:18:54 81.31, 57.91 79.24 0.32 20
7 04/04/2016 06:02:58 -81.31, -43.49 101.84 04/04/2016 06:03:42 -81.30, -43.45 101.82 0.79 44
8 04/04/2016 06:53:37 81.31, 124.29 78.20 04/04/2016 06:53:08 81.30, 124.18 78.17 2.10 29
9 04/07/2016 01:37:21 -81.31, 23.26 102.84 04/07/2016 01:37:56 -81.31, 23.08 102.84 3.02 35




NCC Satellite Simultaneous Nadir Overpasses (SNOs) Prediction Service
